Weather History for Canadian, TX

Change the Weather History Date:

Wednesday, February 13, 2013

  Actual Average (KPPA) Record (KPPA)
Temperature  
Mean Temperature 28 °F -  
Max Temperature 39 °F 54 °F 80 °F (1976)
Min Temperature 17 °F 25 °F 7 °F (1986)
Degree Days  
Heating Degree Days 37    
Moisture  
Dew Point 24 °F    
Average Humidity 84    
Maximum Humidity 100    
Minimum Humidity 61    
Precipitation  
Precipitation 0.00 in - - ()
Sea Level Pressure  
Sea Level Pressure 30.02 in    
Wind  
Wind Speed 3 mph (WNW)    
Max Wind Speed 8 mph    
Max Gust Speed -    
Visibility 9 miles    
Events      
Averages and records for this station are not official NWS values.
T = Trace of Precipitation, MM = Missing Value Source: NWS Daily Summary

Daily Weather History Graph

Daily Weather History Graph

Search for Another Location

Airport:

Trip Planner

Search our weather history database for the weather conditions in past years. The results will help you decide how hot, cold, wet, or windy it might be!

Date:

Astronomy

Feb. 13, 2013 Rise Set
Actual Time 7:30 AM CST 6:21 PM CST
Civil Twilight 7:04 AM CST 6:47 PM CST
Nautical Twilight 6:34 AM CST 7:17 PM CST
Astronomical Twilight 6:04 AM CST 7:47 PM CST
Moon 9:09 AM CST (2/13) 10:15 PM CST (2/13)
Length of Visible Light 11h 43m
Length of Day
10h 50m
Waxing Crescent, 14% of the Moon is Illuminated
Feb 13
Waxing Crescent
Feb 17
First Quarter
Feb 25
Full
Mar 4
Last Quarter
Mar 11
New

Hourly Weather History & Observations

Time (CST) Temp. Windchill Dew Point Humidity Pressure Visibility Wind Dir Wind Speed Gust Speed Precip Events Conditions
12:15 AM 26.6 °F 21.2 °F 26.6 °F 100% 30.06 in 10.0 mi SW 4.6 mph - N/A   Clear
12:35 AM 26.6 °F 18.2 °F 26.6 °F 100% 30.06 in 10.0 mi SW 8.1 mph - N/A   Clear
12:55 AM 28.4 °F 21.2 °F 26.6 °F 93% 30.06 in 10.0 mi SW 6.9 mph - N/A   Clear
1:15 AM 26.6 °F 21.2 °F 24.8 °F 93% 30.06 in 10.0 mi SW 4.6 mph - N/A   Clear
1:35 AM 24.8 °F - 23.0 °F 93% 30.06 in 10.0 mi Calm Calm - N/A   Clear
1:55 AM 24.8 °F - 23.0 °F 93% 30.05 in 5.0 mi Calm Calm - N/A   Clear
2:15 AM 23.0 °F - 23.0 °F 100% 30.05 in 7.0 mi Calm Calm - N/A   Clear
2:35 AM 23.0 °F - 21.2 °F 93% 30.05 in 7.0 mi Calm Calm - N/A   Clear
2:55 AM 23.0 °F - 21.2 °F 93% 30.04 in 7.0 mi Calm Calm - N/A   Clear
3:15 AM 24.8 °F - 23.0 °F 93% 30.03 in 10.0 mi Calm Calm - N/A   Clear
3:35 AM 21.2 °F 14.9 °F 19.4 °F 93% 30.03 in 7.0 mi NE 4.6 mph - N/A   Clear
3:55 AM 21.2 °F - 19.4 °F 93% 30.02 in 7.0 mi Calm Calm - N/A   Clear
4:15 AM 21.2 °F 14.9 °F 19.4 °F 93% 30.02 in 7.0 mi NNE 4.6 mph - N/A   Clear
4:35 AM 19.4 °F 11.5 °F 17.6 °F 93% 30.02 in 7.0 mi North 5.8 mph - N/A   Clear
4:55 AM 19.4 °F 14.3 °F 17.6 °F 93% 30.03 in 7.0 mi North 3.5 mph - N/A   Clear
5:15 AM 19.4 °F - 17.6 °F 93% 30.03 in 7.0 mi Calm Calm - N/A   Clear
5:35 AM 21.2 °F - 19.4 °F 93% 30.03 in 10.0 mi Calm Calm - N/A   Clear
5:55 AM 19.4 °F 14.3 °F 17.6 °F 93% 30.04 in 10.0 mi NE 3.5 mph - N/A   Clear
6:15 AM 19.4 °F 14.3 °F 17.6 °F 93% 30.04 in 10.0 mi NE 3.5 mph - N/A   Clear
6:35 AM 17.6 °F - 17.6 °F 100% 30.05 in 10.0 mi Calm Calm - N/A   Clear
6:55 AM 19.4 °F 14.3 °F 17.6 °F 93% 30.05 in 10.0 mi NE 3.5 mph - N/A   Clear
7:15 AM 19.4 °F 14.3 °F 17.6 °F 93% 30.05 in 10.0 mi NNE 3.5 mph - N/A   Clear
7:35 AM 19.4 °F - 17.6 °F 93% 30.05 in 7.0 mi Calm Calm - N/A   Clear
7:55 AM 17.6 °F - 15.8 °F 93% 30.05 in 7.0 mi Calm Calm - N/A   Clear
8:15 AM 17.6 °F - 15.8 °F 93% 30.06 in 10.0 mi Calm Calm - N/A   Clear
8:35 AM 19.4 °F - 15.8 °F 86% 30.06 in 10.0 mi Calm Calm - N/A   Clear
8:55 AM 19.4 °F - 17.6 °F 93% 30.06 in 7.0 mi Calm Calm - N/A   Clear
9:15 AM 19.4 °F - 17.6 °F 93% 30.07 in 10.0 mi Calm Calm - N/A   Clear
9:35 AM 23.0 °F - 19.4 °F 86% 30.07 in 10.0 mi Calm Calm - N/A   Clear
9:55 AM 24.8 °F - 21.2 °F 86% 30.07 in 10.0 mi Calm Calm - N/A   Clear
10:15 AM 26.6 °F - 23.0 °F 86% 30.06 in 10.0 mi Calm Calm - N/A   Clear
10:35 AM 28.4 °F - 23.0 °F 80% 30.07 in 10.0 mi Calm Calm - N/A   Clear
10:55 AM 30.2 °F - 24.8 °F 80% 30.07 in 10.0 mi Calm Calm - N/A   Clear
11:15 AM 32.0 °F - 24.8 °F 75% 30.06 in 10.0 mi Calm Calm - N/A   Clear
11:35 AM 32.0 °F - 24.8 °F 75% 30.07 in 10.0 mi Calm Calm - N/A   Clear
11:55 AM 33.8 °F 28.6 °F 24.8 °F 70% 30.07 in 10.0 mi NNW 5.8 mph - N/A   Clear
12:15 PM 33.8 °F 28.6 °F 26.6 °F 75% 30.06 in 10.0 mi NNW 5.8 mph - N/A   Clear
12:35 PM 33.8 °F 27.7 °F 26.6 °F 75% 30.06 in 10.0 mi NW 6.9 mph - N/A   Clear
12:55 PM 33.8 °F 28.6 °F 26.6 °F 75% 30.05 in 10.0 mi NW 5.8 mph - N/A   Clear
1:15 PM 35.6 °F 32.8 °F 26.6 °F 70% 30.03 in 10.0 mi West 3.5 mph - N/A   Clear
1:35 PM 35.6 °F 31.7 °F 26.6 °F 70% 30.02 in 10.0 mi WSW 4.6 mph - N/A   Clear
1:55 PM 37.4 °F 34.9 °F 28.4 °F 70% 30.01 in 10.0 mi SW 3.5 mph - N/A   Clear
2:15 PM 37.4 °F - 26.6 °F 65% 29.99 in 10.0 mi Calm Calm - N/A   Clear
2:35 PM 37.4 °F - 26.6 °F 65% 29.99 in 10.0 mi Calm Calm - N/A   Clear
2:55 PM 39.2 °F - 26.6 °F 61% 29.98 in 10.0 mi Calm Calm - N/A   Clear
3:15 PM 37.4 °F - 28.4 °F 70% 29.98 in 10.0 mi Calm Calm - N/A   Clear
3:35 PM 37.4 °F - 30.2 °F 75% 29.97 in 10.0 mi Calm Calm - N/A   Clear
3:55 PM 39.2 °F 37.0 °F 30.2 °F 70% 29.97 in 10.0 mi North 3.5 mph - N/A   Clear
4:35 PM 37.4 °F 34.9 °F 30.2 °F 75% 29.97 in 10.0 mi NNW 3.5 mph - N/A   Clear
4:55 PM 37.4 °F - 30.2 °F 75% 29.97 in 10.0 mi Calm Calm - N/A   Clear
5:15 PM 39.2 °F - 30.2 °F 70% 29.97 in 10.0 mi Calm Calm - N/A   Clear
5:35 PM 37.4 °F - 30.2 °F 75% 29.96 in 10.0 mi Calm Calm - N/A   Clear
5:55 PM 37.4 °F 33.8 °F 28.4 °F 70% 29.95 in 10.0 mi WSW 4.6 mph - N/A   Clear
6:15 PM 37.4 °F 32.1 °F 26.6 °F 65% 29.96 in 10.0 mi WSW 6.9 mph - N/A   Clear
6:35 PM 35.6 °F 31.7 °F 26.6 °F 70% 29.96 in 10.0 mi WSW 4.6 mph - N/A   Clear
6:55 PM 35.6 °F - 26.6 °F 70% 29.96 in 10.0 mi Calm Calm - N/A   Clear
7:15 PM 33.8 °F - 26.6 °F 75% 29.97 in 10.0 mi Calm Calm - N/A   Clear
7:35 PM 33.8 °F - 26.6 °F 75% 29.97 in 10.0 mi Calm Calm - N/A   Clear
7:55 PM 32.0 °F - 28.4 °F 87% 29.97 in 10.0 mi Calm Calm - N/A   Clear
8:15 PM 32.0 °F - 26.6 °F 80% 29.98 in 10.0 mi Calm Calm - N/A   Clear
8:35 PM 30.2 °F - 26.6 °F 86% 29.98 in 10.0 mi Calm Calm - N/A   Clear
8:55 PM 30.2 °F - 26.6 °F 86% 29.98 in 10.0 mi Calm Calm - N/A   Clear
9:15 PM 30.2 °F - 26.6 °F 86% 29.99 in 10.0 mi Calm Calm - N/A   Clear
9:35 PM 26.6 °F - 24.8 °F 93% 29.99 in 10.0 mi Calm Calm - N/A   Clear
9:55 PM 26.6 °F - 24.8 °F 93% 30.00 in 10.0 mi Calm Calm - N/A   Clear
10:15 PM 26.6 °F 22.6 °F 24.8 °F 93% 30.01 in 10.0 mi WSW 3.5 mph - N/A   Clear
10:35 PM 26.6 °F 21.2 °F 23.0 °F 86% 30.01 in 10.0 mi SSW 4.6 mph - N/A   Clear
10:55 PM 24.8 °F 20.5 °F 23.0 °F 93% 30.01 in 10.0 mi SSW 3.5 mph - N/A   Clear
11:15 PM 24.8 °F 20.5 °F 23.0 °F 93% 30.01 in 10.0 mi WSW 3.5 mph - N/A   Clear
11:35 PM 26.6 °F 21.2 °F 23.0 °F 86% 30.01 in 10.0 mi SW 4.6 mph - N/A   Clear
11:55 PM 26.6 °F - 23.0 °F 86% 30.01 in 10.0 mi Calm Calm - N/A   Clear